Weather History for KMER - May, 2014

Change the Weather History Date:

Friday, May 9, 2014

  Actual Average (KMCE) Record (KMCE)
Temperature  
Mean Temperature 68 °F 65 °F  
Max Temperature 78 °F 81 °F 98 °F (2012)
Min Temperature 55 °F 50 °F 42 °F (1953)
Degree Days  
Heating Degree Days 0    
Month to date heating degree days  
Since 1 July heating degree days  
Cooling Degree Days 2    
Month to date cooling degree days  
Year to date cooling degree days  
Growing Degree Days 18 (Base 50)    
Moisture  
Dew Point 49 °F    
Average Humidity 61    
Maximum Humidity 94    
Minimum Humidity 24    
Precipitation  
Precipitation 0.00 in 0.03 in 0.26 in (2010)
Month to date precipitation 0.26  
Year to date precipitation 8.23  
Snow  
Snow 0.00 in - - ()
Month to date snowfall  
Since 1 July snowfall  
Snow Depth -    
Sea Level Pressure  
Sea Level Pressure 30.07 in    
Wind  
Wind Speed 9 mph (North)    
Max Wind Speed 21 mph    
Max Gust Speed 23 mph    
Visibility 10 miles    
Events      
T = Trace of Precipitation, MM = Missing Value Source: NWS Daily Summary

Daily Weather History Graph

Daily Weather History Graph

Search for Another Location

Airport or City:

Trip Planner

Search our weather history database for the weather conditions in past years. The results will help you decide how hot, cold, wet, or windy it might be!

Date:

Astronomy

May. 09, 2014 Rise Set
Actual Time 5:58 AM PDT 7:59 PM PDT
Civil Twilight 5:29 AM PDT 8:28 PM PDT
Nautical Twilight 4:55 AM PDT 9:03 PM PDT
Astronomical Twilight 4:17 AM PDT 9:40 PM PDT
Moon 3:07 PM PDT (5/9) 2:56 AM PDT (5/9)
Length of Visible Light 14h 58m
Length of Day
14h 00m
Waxing Gibbous, 74% of the Moon is Illuminated
May 9
Waxing Gibbous
May 14
Full
May 21
Last Quarter
May 28
New
Jun 5
First Quarter

Hourly Weather History & Observations

Time (PDT) Temp. Dew Point Humidity Pressure Visibility Wind Dir Wind Speed Gust Speed Precip Events Conditions
12:15 AM 64.4 °F 55.4 °F 73% 30.07 in 10.0 mi NW 5.8 mph - N/A   Scattered Clouds
12:35 AM 64.4 °F 55.4 °F 73% 30.07 in 10.0 mi NNW 5.8 mph - N/A   Scattered Clouds
12:55 AM 64.4 °F 55.4 °F 73% 30.07 in 10.0 mi NW 5.8 mph - N/A   Scattered Clouds
1:15 AM 64.4 °F 55.4 °F 73% 30.07 in 10.0 mi NW 6.9 mph - N/A   Scattered Clouds
1:35 AM 64.4 °F 55.4 °F 73% 30.07 in 10.0 mi NNW 6.9 mph - N/A   Scattered Clouds
1:55 AM 64.4 °F 55.4 °F 73% 30.07 in 10.0 mi North 8.1 mph - N/A   Mostly Cloudy
2:15 AM 62.6 °F 57.2 °F 82% 30.07 in 10.0 mi North 6.9 mph - N/A   Overcast
2:35 AM 62.6 °F 57.2 °F 82% 30.07 in 10.0 mi North 9.2 mph - N/A   Overcast
2:55 AM 62.6 °F 57.2 °F 82% 30.07 in 10.0 mi North 9.2 mph - N/A   Overcast
3:15 AM 62.6 °F 57.2 °F 82% 30.07 in 10.0 mi North 8.1 mph - N/A   Overcast
3:35 AM 62.6 °F 57.2 °F 82% 30.07 in 10.0 mi North 6.9 mph - N/A   Overcast
3:55 AM 62.6 °F 57.2 °F 82% 30.07 in 10.0 mi North 5.8 mph - N/A   Overcast
4:15 AM 62.6 °F 57.2 °F 82% 30.08 in 10.0 mi North 8.1 mph - N/A   Overcast
4:35 AM 62.6 °F 57.2 °F 82% 30.08 in 10.0 mi North 8.1 mph - N/A   Overcast
4:55 AM 60.8 °F 57.2 °F 88% 30.08 in 10.0 mi North 9.2 mph - N/A   Mostly Cloudy
5:15 AM 60.8 °F 57.2 °F 88% 30.08 in 10.0 mi NNE 10.4 mph - N/A   Scattered Clouds
5:35 AM 59.0 °F 57.2 °F 94% 30.08 in 10.0 mi North - - N/A   Partly Cloudy
5:55 AM 59.0 °F 57.2 °F 94% 30.09 in 10.0 mi North 8.1 mph - N/A   Partly Cloudy
6:45 AM 60.8 °F 59.0 °F 94% 30.10 in 10.0 mi NNW 11.5 mph - N/A   Mostly Cloudy
7:50 AM 64.4 °F 57.2 °F 77% 30.10 in 10.0 mi NNW 17.3 mph - N/A   Partly Cloudy
8:45 AM 64.4 °F 55.4 °F 73% 30.11 in 10.0 mi North 17.3 mph - N/A   Scattered Clouds
9:50 AM 69.8 °F 48.2 °F 46% 30.11 in 10.0 mi North 13.8 mph 20.7 mph N/A   Partly Cloudy
10:50 AM 71.6 °F 44.6 °F 38% 30.11 in 10.0 mi North 13.8 mph 20.7 mph N/A   Clear
11:45 AM 73.4 °F 46.4 °F 38% 30.10 in 10.0 mi North 15.0 mph 19.6 mph N/A   Clear
12:45 PM 75.2 °F 46.4 °F 36% 30.09 in 10.0 mi NW 13.8 mph - N/A   Clear
1:45 PM 77.0 °F 44.6 °F 32% 30.08 in 10.0 mi NNW 13.8 mph - N/A   Clear
3:45 PM 78.8 °F 44.6 °F 30% 30.05 in 10.0 mi NNW 17.3 mph - N/A   Clear
4:45 PM 78.8 °F 44.6 °F 30% 30.03 in 10.0 mi North 20.7 mph - N/A   Clear
5:45 PM 78.8 °F 39.2 °F 24% 30.03 in 10.0 mi NNW 13.8 mph 23.0 mph N/A   Clear
6:45 PM 73.4 °F 42.8 °F 33% 30.02 in 10.0 mi NNW 20.7 mph - N/A   Clear
7:45 PM 69.8 °F 44.6 °F 40% 30.04 in 7.0 mi NNW 8.1 mph - N/A   Clear
8:15 PM 66.2 °F 44.6 °F 46% 30.05 in 10.0 mi North 11.5 mph 17.3 mph N/A   Clear
8:35 PM 64.4 °F 44.6 °F 49% 30.05 in 10.0 mi North 9.2 mph - N/A   Clear
8:45 PM 64.4 °F 42.8 °F 45% 30.06 in 7.0 mi NNW 13.8 mph - N/A   Clear
8:55 PM 62.6 °F 42.8 °F 48% 30.06 in 10.0 mi North 11.5 mph - N/A   Clear
9:15 PM 62.6 °F 39.2 °F 42% 30.07 in 10.0 mi North 12.7 mph - N/A   Clear
9:35 PM 60.8 °F 39.2 °F 45% 30.07 in 10.0 mi North - - N/A   Clear
9:55 PM 60.8 °F 39.2 °F 45% 30.08 in 10.0 mi North - - N/A   Clear
10:15 PM 59.0 °F 39.2 °F 48% 30.08 in 10.0 mi NE 9.2 mph - N/A   Clear
10:35 PM 59.0 °F 39.2 °F 48% 30.08 in 10.0 mi NE 9.2 mph - N/A   Clear
10:55 PM 57.2 °F 39.2 °F 51% 30.08 in 10.0 mi NE 11.5 mph - N/A   Clear
11:15 PM 57.2 °F 39.2 °F 51% 30.08 in 10.0 mi NE 11.5 mph - N/A   Clear
11:35 PM 57.2 °F 39.2 °F 51% 30.08 in 10.0 mi NE 11.5 mph - N/A   Clear
11:55 PM 55.4 °F 42.8 °F 63% 30.09 in 10.0 mi NE 10.4 mph - N/A   Clear